Regional Weather Roundup
Issued by NWS

Home | Current Version | Previous Version | Text Only | Print | Product List | Glossary Off
Versions: 1 2 3 4 5 6 7 8 9 10 11 12 13 14 15 16 17 18 19 20 21 22 23 24 25 26 27 28 29 30 31 32 33 34 35 36 37 38 39 40 41 42 43 44 45 46 47 48 49 50

000
ASUS43 KBIS 031610
RWRND

NORTH DAKOTA REGIONAL WEATHER ROUNDUP
NATIONAL WEATHER SERVICE BISMARCK ND
1000 AM CST SAT DEC 03 2016

NOTE: "FAIR" INDICATES FEW OR NO CLOUDS BELOW 12,000 FEET WITH NO
SIGNIFICANT WEATHER AND/OR OBSTRUCTIONS TO VISIBILITY.


NDZ001>003-009>011-017-031700-
NORTHWEST NORTH DAKOTA

CITY           SKY/WX    TMP DP  RH WIND       PRES   REMARKS
WILLISTON      CLOUDY    23  18  81 S6        29.83S WCI  16
MINOT          SUNNY     24  20  84 SE10G21   29.88F WCI  14
MINOT AFB      SUNNY     24  20  83 S13       29.87F WCI  12
$$

NDZ018>021-031>035-040>046-031700-
SOUTHWEST NORTH DAKOTA

CITY           SKY/WX    TMP DP  RH WIND       PRES   REMARKS
BISMARCK       CLOUDY    23  23 100 S15       29.98F FOG     WCI  10
DICKINSON      SUNNY     17  14  88 S12       29.83F WCI   4
GARRISON         N/A     25  22  88 S18       29.90F WCI  11
HETTINGER ARPT SUNNY     17  15  92 S5        29.90S WCI  10
$$

NDZ004>008-012>016-024-026-027-054-031700-
NORTHEAST NORTH DAKOTA

CITY           SKY/WX    TMP DP  RH WIND       PRES   REMARKS
GRAND FORKS    CLOUDY    28  22  78 S16       30.14F WCI  16
GRND FRKS AFB  CLOUDY    28  22  80 S15       30.13F WCI  16
DEVILS LAKE    CLOUDY    27  25  92 S17       30.04F WCI  14
$$

NDZ022-023-025-028>030-036>039-047>053-031700-
SOUTHEAST NORTH DAKOTA

CITY           SKY/WX    TMP DP  RH WIND       PRES   REMARKS
FARGO          CLOUDY    28  19  69 S17       30.19F WCI  16
JAMESTOWN      CLOUDY    29  26  89 S18G25    30.06F WCI  16
$$





USA.gov is the U.S. government's official web portal to all federal, state and local government web resources and services.